Regional Weather Roundup
Issued by NWS

Home | Current Version | Previous Version | Graphics & Text | Print | Product List | Glossary On
Versions: 1 2 3 4 5 6 7 8 9 10 11 12 13 14 15 16 17 18 19 20 21 22 23 24 25 26 27 28 29 30 31 32 33 34 35 36 37 38 39 40 41 42 43 44 45 46 47 48 49 50
053
ASUS45 KBOU 201507
RWRCO

WEATHER ROUNDUP FOR COLORADO
NATIONAL WEATHER SERVICE DENVER/BOULDER CO
800 AM MST MON FEB 20 2017

NOTE: "FAIR" INDICATES FEW OR NO CLOUDS BELOW 12000 FEET WITH NO
SIGNIFICANT WEATHER AND/OR OBSTRUCTIONS TO VISIBILITY.

COZ001>005-013-030-031-201600-
...NORTHWEST COLORADO...

CITY           SKY/WX    TMP DP  RH WIND       PRES   REMARKS
CRAIG          CLOUDY    25  23  92 CALM      30.12R FOG
HAYDEN         CLOUDY    21  18  86 CALM      30.11R VSB 1/4
MEEKER         CLOUDY    26  22  84 E5        30.13R WCI  20
MOUNT WERNER   NOT AVBL
STEAMBOAT SPGS CLOUDY    26  25  97 CALM      30.11R VSB<1/4
WALDEN         NOT AVBL
$$

COZ006>008-011-201600-
...WEST CENTRAL VALLEYS...

CITY           SKY/WX    TMP DP  RH WIND       PRES   REMARKS
GRAND JUNCTION CLOUDY    39  38  96 SE8       30.15R
MONTROSE       FAIR      32  30  92 S7        30.21R WCI  26
EAGLE          PTSUNNY   32  28  86 CALM      30.18R
RIFLE          PTSUNNY   37  33  85 E6        30.15R
DELTA          CLOUDY    39  37  95 E3        30.19R
NUCLA          PTSUNNY   34  30  86 E10       30.22R WCI  26
$$

COZ017>023-064>068-201600-
...SOUTHWEST COLORADO...

CITY           SKY/WX    TMP DP  RH WIND       PRES   REMARKS
DURANGO        FAIR      27  23  85 NW3       30.18R
CORTEZ         FAIR      33  32  96 NE8       30.19R WCI  26
PAGOSA SPRINGS CLOUDY    28  28  99 N5        30.19R FOG     WCI  23
TELLURIDE      FAIR      24  19  82 S3        30.21R
WOLF CREEK PAS FAIR      18   0  45 NW6       30.22R WCI   9
$$

COZ009-010-012-014-032>034-037-058>063-201600-
...CENTRAL COLORADO...

CITY           SKY/WX    TMP DP  RH WIND       PRES   REMARKS
ASPEN          PTSUNNY   29  26  89 VRB3      30.16R
BUENA VISTA    FAIR      32  12  43 N3        30.12R
COPPER MTN     FAIR      18  12  79 MISG      30.10R
BERTHOUD PASS  CLOUDY    10   0  61 NW28      30.07R WCI -11
COTTONWOOD PAS FAIR      28  10  47 NW6       30.12R WCI  22
GUNNISON       FAIR      20  16  84 CALM      30.19R
KREMMLING      FAIR      28  23  80 SE3       30.12S
LEADVILLE      FAIR      15   9  76 NE6       30.12R WCI   6
MONARCH PASS   CLOUDY    16  12  86 W21       30.24R WCI  -2
SALIDA         FAIR      35  18  49 SW6       30.20R WCI  30
SUNLIGHT       NOT AVBL
WILKERSON PASS FAIR      21   1  42 NW18G33   30.08R WCI   6
$$

COZ069>075-201600-
...SAN LUIS VALLEY/SANGRE DE CRISTO MOUNTAINS...

CITY           SKY/WX    TMP DP  RH WIND       PRES   REMARKS
ALAMOSA        FAIR      31  22  69 E5        30.13R WCI  26
LA VETA PASS   FAIR      23  18  80 NE21G28   30.10R WCI   8
SAGUACHE       FAIR      32  21  64 NW12      30.15R WCI  23
$$

COZ035-036-038>040-201600-
...NORTHERN COLORADO FRONT RANGE...

CITY           SKY/WX    TMP DP  RH WIND       PRES   REMARKS
DENVER INTL AP FAIR      40  19  43 W9        29.99R
DMNS CITY PARK   N/A     47  12  24 NW9G20    30.00R
AURORA         MOSUNNY   43  14  31 W10       30.00R
FRONT RANGE AP NOT AVBL
ERIE MUNI ARPT FAIR      47  10  22 N13       29.98R
BOULDER MUN AP FAIR      46  14  27 W9G22     29.97R
CENTENNIAL     FAIR      44  13  28 NW18G26   29.99R
BROOMFIELD     MOSUNNY   46  14  27 W20G29    29.98R
FORT COLLINS   FAIR      47  15  27 NE9       29.97R
LONGMONT       FAIR      49  17  28 NW7       29.98R
$$

COZ041-046-047-076>085-087-088-201600-
...PIKES PEAK/PALMER DIVIDE AND SOUTHERN FOOTHILLS...

CITY           SKY/WX    TMP DP  RH WIND       PRES   REMARKS
COLO. SPRINGS  FAIR      43   7  22 NW12      30.01R
A. F. ACADEMY  FAIR      37   8  29 CALM      30.00R
SCHRIEVER AFB  FAIR      41   7  25 NW18G28   30.00R
ELLICOTT       FAIR     N/A N/A N/A NW5       30.00R
FALCON         FAIR      40   7  25 NW10G18   30.02R
FORT CARSON    FAIR      37  21  53 CALM      30.00R
LIMON          FAIR      36  21  54 W9        29.98R
MONUMENT HILL  FAIR      34  14  44 NW13      30.02R WCI  25
TRINIDAD       FAIR      39  22  50 SW6       30.03R
$$

COZ042>045-048>051-090-091-201600-
...NORTHEAST COLORADO...

CITY           SKY/WX    TMP DP  RH WIND       PRES   REMARKS
GREELEY ARPT   FAIR      43  21  41 NW8       29.98R
AKRON          FAIR      41  19  41 NW8       29.94R
BURLINGTON     FAIR      47  21  35 NW25      29.91R
WRAY           NOT AVBL
STERLING       FAIR      45  21  39 NW17G23   29.90R
HOLYOKE        FAIR      46  19  34 NW17G32   29.89R
FORT MORGAN    FAIR      44  18  34 W12       29.95R
$$

COZ086-089-092>099-201600-
...SOUTHEAST COLORADO...

CITY           SKY/WX    TMP DP  RH WIND       PRES   REMARKS
PUEBLO         FAIR      44  22  41 W8        29.99R
LA JUNTA       FAIR      44  30  57 NW9       29.99R
LAMAR          FAIR      47  21  35 NW9       29.94R
SPRINGFIELD      N/A     48  24  39 NW17      29.95R
$$




USA.gov is the U.S. government's official web portal to all federal, state and local government web resources and services.